• In Deutschland
  • Länderverzeichnis
  • Für 7 Tage
  • Wassertemperatur
  • Satellitenkarten
  • Wetterkarte
  • Widgets
  • user-avatar
    Anmelden

    Stündliche Wetter Razdolnyy

    Heute, 15 Juli, Sonntag

    Zeit Temperatur Niederschläge Wind Luftdruck Luftfeuchtigkeit
    00:00 +27°C° 0 mm 3 m/S 739 mmHg 52%
    01:00 +27°C° 0 mm 2 m/S 739 mmHg 54%
    02:00 +26°C° 0 mm 2 m/S 739 mmHg 56%
    03:00 +26°C° 0 mm 3 m/S 739 mmHg 52%
    04:00 +26°C° 0,1 mm 2 m/S 739 mmHg 54%
    05:00 +26°C° 0,1 mm 2 m/S 739 mmHg 55%
    06:00 +26°C° 0,1 mm 2 m/S 739 mmHg 57%
    07:00 +28°C° 0,1 mm 2 m/S 739 mmHg 52%
    08:00 +30°C° 0,1 mm 3 m/S 739 mmHg 47%
    09:00 +31°C° 0 mm 3 m/S 739 mmHg 44%
    10:00 +33°C° 0 mm 3 m/S 739 mmHg 42%
    11:00 +33°C° 0 mm 3 m/S 739 mmHg 39%
    12:00 +34°C° 0 mm 3 m/S 739 mmHg 37%
    13:00 +34°C° 0 mm 3 m/S 739 mmHg 37%
    14:00 +34°C° 0 mm 3 m/S 739 mmHg 37%
    15:00 +34°C° 0 mm 2 m/S 739 mmHg 37%
    16:00 +33°C° 0,2 mm 3 m/S 739 mmHg 42%
    17:00 +32°C° 0,2 mm 4 m/S 739 mmHg 48%
    18:00 +29°C° 0,2 mm 5 m/S 739 mmHg 54%
    19:00 +28°C° 0,3 mm 5 m/S 739 mmHg 59%
    20:00 +27°C° 0,3 mm 5 m/S 739 mmHg 65%
    21:00 +26°C° 0,3 mm 6 m/S 739 mmHg 70%
    22:00 +25°C° 4,8 mm 5 m/S 739 mmHg 76%
    23:00 +23°C° 4,8 mm 5 m/S 739 mmHg 81%

    Morgen, 16 Juli, Montag

    Zeit Temperatur Niederschläge Wind Luftdruck Luftfeuchtigkeit
    00:00 +22°C° 4,8 mm 5 m/S 739 mmHg 87%
    01:00 +22°C° 1,6 mm 4 m/S 739 mmHg 86%
    02:00 +22°C° 1,6 mm 3 m/S 739 mmHg 86%
    03:00 +23°C° 1,6 mm 2 m/S 739 mmHg 85%
    04:00 +23°C° 0,8 mm 2 m/S 739 mmHg 84%
    05:00 +22°C° 0,8 mm 3 m/S 740 mmHg 83%
    06:00 +22°C° 0,8 mm 3 m/S 740 mmHg 82%
    07:00 +22°C° 0,5 mm 3 m/S 740 mmHg 81%
    08:00 +22°C° 0,5 mm 4 m/S 740 mmHg 79%
    09:00 +22°C° 0,5 mm 4 m/S 740 mmHg 78%
    10:00 +25°C° 0 mm 4 m/S 740 mmHg 70%
    11:00 +26°C° 0 mm 5 m/S 740 mmHg 62%
    12:00 +28°C° 0 mm 5 m/S 740 mmHg 54%
    13:00 +28°C° 0 mm 5 m/S 740 mmHg 51%
    14:00 +29°C° 0 mm 5 m/S 740 mmHg 48%
    15:00 +29°C° 0 mm 5 m/S 740 mmHg 45%
    16:00 +29°C° 0 mm 5 m/S 740 mmHg 46%
    17:00 +29°C° 0 mm 5 m/S 740 mmHg 46%
    18:00 +29°C° 0 mm 5 m/S 740 mmHg 46%
    19:00 +28°C° 0 mm 4 m/S 740 mmHg 49%
    20:00 +27°C° 0 mm 3 m/S 740 mmHg 53%
    21:00 +26°C° 0 mm 3 m/S 740 mmHg 56%
    22:00 +26°C° 0 mm 3 m/S 740 mmHg 59%
    23:00 +25°C° 0 mm 4 m/S 740 mmHg 62%

    übermorgen, 17 Juli, Dienstag

    Zeit Temperatur Niederschläge Wind Luftdruck Luftfeuchtigkeit
    00:00 +23°C° 0 mm 4 m/S 740 mmHg 65%
    01:00 +23°C° 0 mm 4 m/S 740 mmHg 67%
    02:00 +22°C° 0 mm 4 m/S 740 mmHg 69%
    03:00 +21°C° 0 mm 4 m/S 740 mmHg 71%
    04:00 +21°C° 0 mm 4 m/S 740 mmHg 71%
    05:00 +22°C° 0 mm 5 m/S 740 mmHg 70%
    06:00 +22°C° 0 mm 5 m/S 741 mmHg 70%
    07:00 +23°C° 0 mm 5 m/S 741 mmHg 65%
    08:00 +26°C° 0 mm 6 m/S 741 mmHg 60%
    09:00 +27°C° 0 mm 6 m/S 741 mmHg 55%
    10:00 +28°C° 0 mm 6 m/S 741 mmHg 51%
    11:00 +29°C° 0 mm 6 m/S 741 mmHg 47%
    12:00 +32°C° 0 mm 6 m/S 741 mmHg 43%
    13:00 +32°C° 0 mm 6 m/S 740 mmHg 42%
    14:00 +32°C° 0 mm 6 m/S 740 mmHg 40%
    15:00 +33°C° 0 mm 6 m/S 740 mmHg 39%
    16:00 +32°C° 0 mm 6 m/S 740 mmHg 40%
    17:00 +32°C° 0 mm 6 m/S 740 mmHg 41%
    18:00 +30°C° 0 mm 6 m/S 741 mmHg 42%
    19:00 +29°C° 0 mm 5 m/S 741 mmHg 46%
    20:00 +28°C° 0 mm 4 m/S 741 mmHg 50%
    21:00 +27°C° 0 mm 3 m/S 742 mmHg 54%
    22:00 +26°C° 0 mm 3 m/S 742 mmHg 57%
    23:00 +25°C° 0 mm 3 m/S 742 mmHg 59%

    18 Juli, Mittwoch

    Zeit Temperatur Niederschläge Wind Luftdruck Luftfeuchtigkeit
    00:00 +25°C° 0 mm 3 m/S 742 mmHg 62%
    01:00 +24°C° 0 mm 3 m/S 742 mmHg 65%
    02:00 +24°C° 0 mm 2 m/S 742 mmHg 67%
    03:00 +23°C° 0 mm 2 m/S 742 mmHg 70%
    04:00 +23°C° 0 mm 2 m/S 742 mmHg 71%
    05:00 +22°C° 0 mm 3 m/S 742 mmHg 72%
    06:00 +22°C° 0 mm 3 m/S 742 mmHg 73%
    07:00 +25°C° 0 mm 3 m/S 742 mmHg 67%
    08:00 +26°C° 0 mm 3 m/S 743 mmHg 61%
    09:00 +28°C° 0 mm 3 m/S 743 mmHg 54%
    10:00 +29°C° 0 mm 3 m/S 743 mmHg 50%
    11:00 +30°C° 0 mm 3 m/S 743 mmHg 47%
    12:00 +31°C° 0 mm 2 m/S 742 mmHg 43%
    13:00 +31°C° 0 mm 3 m/S 742 mmHg 41%
    14:00 +33°C° 0 mm 3 m/S 742 mmHg 40%
    15:00 +33°C° 0 mm 3 m/S 742 mmHg 39%
    16:00 +32°C° 0 mm 2 m/S 742 mmHg 40%
    17:00 +32°C° 0 mm 2 m/S 742 mmHg 41%
    18:00 +32°C° 0 mm 2 m/S 742 mmHg 42%
    19:00 +30°C° 0,2 mm 2 m/S 742 mmHg 46%
    20:00 +29°C° 0,2 mm 2 m/S 742 mmHg 50%
    21:00 +28°C° 0,2 mm 1 m/S 742 mmHg 54%
    22:00 +27°C° 0 mm 1 m/S 742 mmHg 56%
    23:00 +27°C° 0 mm 1 m/S 742 mmHg 57%

    19 Juli, Donnerstag

    Zeit Temperatur Niederschläge Wind Luftdruck Luftfeuchtigkeit
    00:00 +26°C° 0 mm 1 m/S 742 mmHg 59%
    01:00 +26°C° 0 mm 2 m/S 742 mmHg 60%
    02:00 +26°C° 0 mm 2 m/S 742 mmHg 60%
    03:00 +26°C° 0 mm 2 m/S 742 mmHg 61%
    04:00 +26°C° 0,2 mm 2 m/S 742 mmHg 62%
    05:00 +26°C° 0,2 mm 2 m/S 742 mmHg 62%
    06:00 +26°C° 0,2 mm 2 m/S 742 mmHg 63%
    07:00 +28°C° 0 mm 2 m/S 742 mmHg 56%
    08:00 +30°C° 0 mm 3 m/S 742 mmHg 49%
    09:00 +31°C° 0 mm 3 m/S 742 mmHg 42%
    10:00 +34°C° 0 mm 3 m/S 742 mmHg 38%
    11:00 +35°C° 0 mm 2 m/S 742 mmHg 33%
    12:00 +36°C° 0 mm 2 m/S 742 mmHg 28%
    13:00 +36°C° 0 mm 2 m/S 742 mmHg 27%
    14:00 +36°C° 0 mm 1 m/S 741 mmHg 26%
    15:00 +37°C° 0 mm 1 m/S 741 mmHg 24%
    16:00 +36°C° 0 mm 1 m/S 741 mmHg 25%
    17:00 +36°C° 0 mm 1 m/S 741 mmHg 25%
    18:00 +36°C° 0 mm 1 m/S 741 mmHg 25%
    19:00 +35°C° 0 mm 1 m/S 741 mmHg 28%
    20:00 +34°C° 0 mm 2 m/S 741 mmHg 32%
    21:00 +31°C° 0 mm 2 m/S 741 mmHg 35%
    22:00 +30°C° 0 mm 2 m/S 741 mmHg 37%
    23:00 +30°C° 0 mm 2 m/S 741 mmHg 39%

    20 Juli, Freitag

    Zeit Temperatur Niederschläge Wind Luftdruck Luftfeuchtigkeit
    00:00 +29°C° 0 mm 3 m/S 741 mmHg 41%
    01:00 +28°C° 0 mm 2 m/S 741 mmHg 44%
    02:00 +28°C° 0 mm 2 m/S 741 mmHg 47%
    03:00 +27°C° 0 mm 2 m/S 741 mmHg 49%
    04:00 +28°C° 0 mm 2 m/S 741 mmHg 50%
    05:00 +28°C° 0 mm 2 m/S 741 mmHg 51%
    06:00 +28°C° 0 mm 1 m/S 741 mmHg 52%
    07:00 +30°C° 0 mm 2 m/S 742 mmHg 48%
    08:00 +31°C° 0 mm 2 m/S 742 mmHg 44%
    09:00 +34°C° 0 mm 3 m/S 742 mmHg 40%
    10:00 +35°C° 0 mm 2 m/S 742 mmHg 37%
    11:00 +36°C° 0 mm 2 m/S 742 mmHg 33%
    12:00 +37°C° 0 mm 2 m/S 742 mmHg 30%
    13:00 +38°C° 0 mm 2 m/S 741 mmHg 28%
    14:00 +38°C° 0 mm 2 m/S 741 mmHg 26%
    15:00 +38°C° 0 mm 2 m/S 741 mmHg 25%
    16:00 +38°C° 0 mm 2 m/S 741 mmHg 26%
    17:00 +38°C° 0 mm 3 m/S 741 mmHg 27%
    18:00 +37°C° 0 mm 3 m/S 741 mmHg 28%
    19:00 +36°C° 0,1 mm 2 m/S 741 mmHg 32%
    20:00 +35°C° 0,1 mm 2 m/S 741 mmHg 35%
    21:00 +32°C° 0,1 mm 2 m/S 741 mmHg 38%
    22:00 +31°C° 0,3 mm 2 m/S 741 mmHg 42%
    23:00 +30°C° 0,3 mm 2 m/S 741 mmHg 45%
    Mehr zeigen